Other Public Products
Issued by NWS Charleston, SC

Current Version | Previous Version | Text Only | Print | Product List | Glossary Off
Versions: 1 2 3 4 5 6 7 8 9 10 11 12 13 14 15 16 17 18 19 20 21 22 23 24 25 26 27 28 29 30 31 32 33 34 35 36 37 38 39 40 41 42 43 44 45 46 47 48 49 50

000
FPUS82 KCHS 240112
OPUCHS

TEST...KCHS/KSAV Gateway Observations...TEST
National Weather Service Charleston SC
800 PM EST THU NOV 23 2017

NOTE: "fair" indicates few or no clouds below 12,000 feet with no
significant weather and/or obstructions to visibility.

SCZ050-WAZ558-NCZ071-TXZ119-213-PAZ071-DCZ001-FLZ074-172-MI076-
NYZ176-178-MAZ016-IL014-TNZ027-NJZ106-GAZ044-MD014-240200-

...Gateway Observations for Charleston International...

CITY           SKY/WX    TMP DP  RH WIND       PRES   REMARKS
Chas Airport   CLOUDY    45  44  97 N9        30.00S
Seattle        PTCLDY    51  45  79 S13       29.89R
Charlotte      PTCLDY    45  33  63 E5        30.05R
Dallas DFW     PTCLDY    58  32  37 SE7       30.03R
Dallas Love    PTCLDY    58  30  34 SE8       30.04S
Philladelphia  PTCLDY    37  21  52 W7        30.05F WCI  32
Wash National  CLEAR     39  27  62 S3        30.07S
Baltimore      CLEAR     31  24  75 CALM      30.05S
Miami          MOCLDY    75  73  93 S7        29.85R
Detroit        PTCLDY    31  24  75 S6        29.99S WCI  25
Newark         PTCLDY    38  20  48 W9        30.02F WCI  31
Laguardia      PTCLDY    42  20  41 W8        30.01F
J F K          PTCLDY    39  23  52 W14       30.03F WCI  31
Boston Logan   MOCLDY    38  16  40 VRB3      29.98S
Ft. Lauderdale MOCLDY    74  73  97 S6        29.83R
Chicago O`Hare PTCLDY    37  26  64 S3        29.92F
Chicago Midway PTCLDY    40  27  59 S3        29.93F
Houston Bush   CLEAR     51  41  68 W3        30.08S
Houston Hobby  PTCLDY    53  38  56 CALM      30.08R
Nashville      CLEAR     41  25  53 S6        30.04S
Atlanta        PTCLDY    52  40  63 SE3       30.01R

$$

GAZ044-118-TXZ119-213-NCZ071-DCZ001-MDZ014-506-PAZ021-071-NJZ106-
NYZ176-178-MAZ106-OHZ011-021-055-MIZ076-KYZ091-ILZ014-INZ047-
MNZ060-ONZ431-240200-

...Gateway Observations for Savannah International...

CITY           SKY/WX    TMP DP  RH WIND       PRES   REMARKS
Savannah Arpt  CLOUDY    48  46  93 N7        30.01R
Atlanta        PTCLDY    52  40  63 SE3       30.01R
Charlotte      PTCLDY    45  33  63 E5        30.05R
Dallas DFW     PTCLDY    58  32  37 SE7       30.03R
Houston Bush   CLEAR     51  41  68 W3        30.08S
Wash National  CLEAR     39  27  62 S3        30.07S
Wash Dulles    CLEAR     31  24  75 S5        30.05S WCI  26
Baltimore      CLEAR     31  24  75 CALM      30.05S
Philadelphia   PTCLDY    37  21  52 W7        30.05F WCI  32
Newark         PTCLDY    38  20  48 W9        30.02F WCI  31
Laguardia      PTCLDY    42  20  41 W8        30.01F
J F K          PTCLDY    39  23  52 W14       30.03F WCI  31
Boston         MOCLDY    38  16  40 VRB3      29.98S
Pittsburg      MOCLDY    37  22  54 SW6       30.01R WCI  32
Akron          PTCLDY    32  22  66 S7        30.01R WCI  26
Cleveland      CLEAR     36  24  62 S7        30.03R WCI  30
Cincinnati     CLEAR     38  24  57 S5        30.02S WCI  34
Columbus       CLEAR     33  25  70 CALM      30.03R
Detroit        PTCLDY    31  24  75 S6        29.99S WCI  25
Chicago O`Hare PTCLDY    37  26  64 S3        29.92F
Minneapolis    PTCLDY    42  28  57 S9        29.73F
Indianapolis   CLEAR     35  21  56 SW7       30.01R WCI  29
Toronto Canada CLOUDY    36  21  55 W13       29.93S WCI  27

$$




USA.gov is the U.S. government's official web portal to all federal, state and local government web resources and services.